Location: Winthrop
(48.4780°N, 120.1850°W)
Time: 03:00:56
(UTC-07:00)

Transit 2A - Pass Details

Date: 14 June 2024
Orbit: 591 x 960 km, 66.7° (Epoch: 23 July)

Event Time Altitude Azimuth Distance (km) Brightness Sun altitude
Rises 03:13:08 0° 321° (NW) 3,497 9.7 -12.4°
Reaches altitude 10° 03:15:38 10° 317° (NW) 2,596 8.9 -12.2°
Maximum altitude 03:21:30 50° 243° (WSW) 1,181 6.6 -11.7°
Drops below altitude 10° 03:27:35 10° 170° (S) 2,686 8.4 -11.1°
Sets 03:30:13 0° 166° (SSE) 3,626 9.1 -10.9°
